This demonstration page uses our WeatherBlox Daily Observations layout. Learn more.

Left ArrowRight Arrow

40.92945, -100.16068

Hourly Observations for October 21, 2021

Temp ( °F °C ) Dew Point ( °F °C ) Humidity (%) Winds ( mph kmh ) Pressure ( in mb ) Visibility ( mi km ) Precip ( " mm )
12:15 am 00:15 Clear 33 0.3 31 -0.8 92 92 WNW 6 9 30.28 1026 10 16 N/A
12:35 am 00:35 Clear 32 undefined 30 -1 93 93 WNW 7 11 30.29 1026 10 16 N/A
12:55 am 00:55 Clear 32 0.2 31 -0.7 94 94 WNW 8 13 30.28 1025 10 16 N/A
1:15 am 01:15 Clear 32 0.1 30 -1 92 92 WNW 7 11 30.28 1025 10 16 N/A
1:35 am 01:35 Clear 32 undefined 30 -1 93 93 WNW 7 11 30.29 1026 10 16 N/A
1:55 am 01:55 Clear 33 0.3 31 -0.6 94 94 WNW 8 13 30.28 1026 10 16 N/A
2:15 am 02:15 Clear 32 0.2 31 -0.6 94 94 WNW 8 13 30.30 1026 10 16 N/A
2:35 am 02:35 Clear 33 0.7 32 -0.2 94 94 WNW 9 15 30.29 1026 10 16 N/A
2:55 am 02:55 Clear 34 1.3 32 undefined 91 91 WNW 10 17 30.28 1026 10 16 N/A
3:15 am 03:15 Clear 34 1 32 -0.2 92 92 NW 8 13 30.30 1026 10 16 N/A
3:35 am 03:35 Clear 34 1 32 -0.2 92 92 NW 10 17 30.30 1026 10 16 N/A
3:55 am 03:55 Clear 33 0.6 31 -0.5 92 92 WNW 8 13 30.30 1026 10 16 N/A
4:15 am 04:15 Clear 33 0.3 31 -0.6 94 94 WNW 7 11 30.30 1026 10 16 N/A
4:35 am 04:35 Clear 32 undefined 30 -1.1 92 92 NW 6 9 30.31 1026 10 16 N/A
4:55 am 04:55 Clear 31 -0.5 29 -1.4 94 94 WNW 5 7 30.32 1027 10 16 N/A
5:15 am 05:15 Clear 30 -1.2 28 -2.1 94 94 NNW 6 9 30.32 1027 10 16 N/A
5:35 am 05:35 Clear 29 -1.8 28 -2.5 95 95 N 6 9 30.33 1027 10 16 N/A
5:55 am 05:55 Clear 29 -1.7 28 -2.4 95 95 NW 3 6 30.32 1027 10 16 N/A
6:15 am 06:15 Clear 29 -1.6 28 -2.4 94 94 W 5 7 30.33 1027 10 16 N/A
6:35 am 06:35 Clear 29 -1.6 28 -2.5 94 94 W 6 9 30.33 1027 10 16 N/A
6:55 am 06:55 Clear 29 -1.6 28 -2.5 94 94 WNW 7 11 30.33 1027 10 16 N/A
7:15 am 07:15 Clear 29 -1.7 28 -2.5 94 94 WNW 6 9 30.33 1027 10 16 N/A
7:35 am 07:35 Clear 28 -2 27 -2.9 94 94 WNW 6 9 30.34 1027 10 16 N/A
7:55 am 07:55 Clear 28 -2 27 -3 93 93 WNW 6 9 30.35 1028 10 16 N/A
8:15 am 08:15 Sunny 29 -1.6 28 -2.5 94 94 W 8 13 30.35 1028 10 16 N/A
8:35 am 08:35 Sunny 31 -0.5 29 -1.5 93 93 WNW 5 7 30.34 1028 10 16 N/A
8:55 am 08:55 Sunny 32 undefined 31 -0.8 94 94 WNW 5 7 30.34 1027 10 16 N/A
9:15 am 09:15 Sunny 34 1.3 32 undefined 91 91 W 6 9 30.33 1027 10 16 N/A
9:35 am 09:35 Sunny 36 2.3 32 0.2 86 86 W 5 7 30.33 1027 10 16 N/A
9:55 am 09:55 Sunny 38 3.2 33 0.7 84 84 NW 6 9 30.33 1027 10 16 N/A
10:15 am 10:15 Sunny 40 4.3 33 0.6 77 77 NW 7 11 30.33 1027 10 16 N/A
10:35 am 10:35 Sunny 41 5 33 0.5 73 73 NW 7 11 30.32 1027 10 16 N/A
10:55 am 10:55 Sunny 42 5.8 32 0.1 67 67 NW 5 7 30.31 1026 10 16 N/A
11:15 am 11:15 Sunny 44 6.4 32 undefined 64 64 N 6 9 30.31 1026 10 16 N/A
11:35 am 11:35 Sunny 45 7 32 0.1 62 62 NW 5 7 30.30 1026 10 16 N/A
11:55 am 11:55 Sunny 47 8.2 32 undefined 57 57 N 3 6 30.29 1026 10 16 N/A
12:15 pm 12:15 Sunny 48 8.7 33 0.3 56 56 N N/A 30.27 1025 10 16 N/A
12:35 pm 12:35 Sunny 50 9.9 32 undefined 50 50 N N/A 30.26 1025 10 16 N/A
12:55 pm 12:55 Sunny 51 10.5 33 0.3 50 50 NW 7 11 30.25 1024 10 16 N/A
1:15 pm 13:15 Sunny 52 10.9 33 0.3 48 48 W 3 6 30.23 1024 10 16 N/A
1:35 pm 13:35 Sunny 53 11.4 33 0.3 47 47 SSW 3 6 30.22 1023 10 16 N/A
1:55 pm 13:55 Sunny 55 12.8 34 1.2 45 45 W 7 11 30.20 1023 10 16 N/A
2:15 pm 14:15 Sunny 55 12.8 34 1 45 45 WSW 3 6 30.19 1022 10 16 N/A
2:35 pm 14:35 Sunny 56 13.1 35 1.6 46 46 SW 3 6 30.17 1022 10 16 N/A
2:55 pm 14:55 Sunny 56 13.4 34 1.1 43 43 WSW 3 6 30.16 1021 10 16 N/A
3:15 pm 15:15 Sunny 57 14.1 34 1.2 42 42 W 5 7 30.15 1021 10 16 N/A
3:35 pm 15:35 Sunny 58 14.7 35 1.5 41 41 WSW 3 6 30.14 1021 10 16 N/A
3:55 pm 15:55 Sunny 59 14.8 34 1 39 39 NW 3 6 30.14 1021 10 16 N/A
4:15 pm 16:15 Sunny 58 14.6 33 0.8 39 39 N N/A 30.13 1020 10 16 N/A
4:35 pm 16:35 Sunny 59 14.9 34 1.1 39 39 N N/A 30.13 1020 10 16 N/A
4:55 pm 16:55 Sunny 58 14.6 33 0.8 39 39 N N/A 30.13 1020 10 16 N/A
5:15 pm 17:15 Sunny 60 15.6 34 1.3 38 38 N N/A 30.12 1020 10 16 N/A
5:35 pm 17:35 Sunny 60 15.3 34 1.2 39 39 N N/A 30.12 1020 10 16 N/A
5:55 pm 17:55 Sunny 59 15 34 1.1 39 39 N N/A 30.13 1020 10 16 N/A
6:15 pm 18:15 Sunny 59 14.9 34 1.3 40 40 N N/A 30.13 1020 10 16 N/A
6:35 pm 18:35 Sunny 57 13.9 35 1.4 43 43 N N/A 30.14 1021 10 16 N/A
6:55 pm 18:55 Clear 55 12.6 36 2.1 49 49 N N/A 30.15 1021 10 16 N/A
7:15 pm 19:15 Clear 54 12 36 2.2 51 51 N N/A 30.15 1021 10 16 N/A
7:35 pm 19:35 Clear 50 10.1 37 2.7 60 60 N N/A 30.17 1022 10 16 N/A
7:55 pm 19:55 Clear 50 10.2 37 2.9 61 61 E 3 6 30.17 1022 10 16 N/A
8:15 pm 20:15 Clear 48 9.1 38 3.2 67 67 ESE 3 6 30.18 1022 10 16 N/A
8:35 pm 20:35 Clear 46 7.7 37 3 72 72 N N/A 30.18 1022 10 16 N/A
8:55 pm 20:55 Clear 46 7.7 37 3 72 72 SE 3 6 30.17 1022 10 16 N/A
9:15 pm 21:15 Clear 44 6.7 36 2.2 73 73 ESE 3 6 30.18 1022 10 16 N/A
9:35 pm 21:35 Clear 43 5.9 35 1.8 75 75 N N/A 30.19 1022 10 16 N/A
9:55 pm 21:55 Clear 43 6 35 1.6 74 74 N N/A 30.19 1022 10 16 N/A
10:15 pm 22:15 Clear 41 5.2 34 1.2 76 76 N N/A 30.21 1023 10 16 N/A
10:35 pm 22:35 Clear 40 4.7 34 1.1 78 78 N N/A 30.21 1023 10 16 N/A
10:55 pm 22:55 Clear 37 3 33 0.6 84 84 E 5 7 30.23 1024 10 16 N/A
11:15 pm 23:15 Clear 39 3.7 33 0.4 79 79 ESE 3 6 30.22 1023 10 16 N/A
11:35 pm 23:35 Clear 39 4.1 33 0.7 79 79 N N/A 30.22 1023 10 16 N/A
11:55 pm 23:55 Clear 36 2.4 32 0.1 85 85 N N/A 30.23 1024 10 16 N/A

Powered by AerisWeather